period_start,C,m1,H,J0,J1,J2,J3,J4,J5,JA,JB,JC,JD,JJ,JK,JN,#
2016-08-22 00:03:43,0.00,0.51,0.00,24.25,28.70,31.46,14.43,47.85,1012.71,2031.08,3245.70,2965.99,3351.00,599.71,591.13,40.85,0000 0000 0000 0000 000000
2016-08-22 00:08:44,0.00,0.51,0.00,24.21,28.70,31.46,14.44,47.87,1012.72,2031.07,3245.21,2965.98,3350.98,600.02,591.36,40.90,0000 0000 0000 0000 000000
2016-08-22 00:13:45,0.01,0.51,0.00,24.23,28.70,31.44,14.43,47.90,1012.72,2031.06,3245.06,2965.98,3350.92,599.98,591.23,40.95,0000 0000 0000 0000 000000
2016-08-22 00:18:46,0.01,0.51,0.00,24.22,28.70,31.45,14.39,47.80,1012.73,2031.14,3245.04,2965.97,3350.65,599.92,591.39,41.00,0000 0000 0000 0000 000000
2016-08-22 00:23:48,0.06,0.51,0.00,24.22,28.70,31.46,14.38,47.73,1012.75,2031.90,3245.71,2966.00,3350.97,600.21,591.48,41.05,0000 0000 0000 0000 000000
2016-08-22 00:28:49,0.01,0.51,0.00,24.24,28.70,31.45,14.45,47.87,1012.80,2031.96,3245.34,2966.00,3350.99,600.14,591.51,41.10,0000 0000 0000 0000 000000
2016-08-22 00:33:50,0.00,0.51,0.00,24.16,28.70,31.46,14.44,47.85,1012.83,2031.97,3245.07,2966.00,3350.98,599.86,591.17,41.15,0000 0000 0000 0000 000000
2016-08-22 00:38:51,0.00,0.51,0.00,24.12,28.70,31.46,14.41,47.93,1012.80,2031.96,3245.00,2965.99,3350.89,599.94,591.50,41.20,0000 0000 0000 0000 000000
2016-08-22 00:43:53,0.01,0.51,0.00,24.10,28.70,31.48,14.36,47.83,1012.76,2031.97,3245.00,2965.99,3350.30,599.59,591.17,41.25,0000 0000 0000 0000 000000
2016-08-22 00:48:55,0.00,0.51,0.00,23.89,28.70,31.51,14.49,48.08,1012.76,2031.97,3245.00,2965.99,3350.13,600.06,592.03,41.30,0000 0000 0000 0000 000000
2016-08-22 00:53:56,0.00,0.51,0.00,23.25,28.70,31.60,14.54,48.31,1012.76,2031.98,3244.87,2965.97,3350.03,599.81,593.05,41.35,0000 0000 0000 0000 000000
2016-08-22 00:58:57,0.01,0.51,0.00,22.60,28.67,31.78,14.63,48.47,1012.84,2031.99,3244.31,2965.97,3350.01,599.75,594.43,41.40,0000 0000 0000 0000 000000
2016-08-22 01:03:59,0.00,0.51,0.00,22.35,28.66,31.69,14.60,48.53,1012.94,2031.99,3244.09,2965.98,3350.03,599.93,595.04,41.45,0000 0000 0000 0000 000000
2016-08-22 01:09:00,0.00,0.51,0.00,22.02,28.63,31.72,14.70,48.67,1012.97,2031.99,3244.01,2965.98,3350.01,600.13,596.00,41.50,0000 0000 0000 0000 000000
2016-08-22 01:14:02,0.00,0.51,0.00,21.70,28.59,31.71,14.66,48.74,1012.80,2031.99,3244.02,2965.99,3350.03,599.81,596.25,41.55,0000 0000 0000 0000 000000
2016-08-22 01:19:03,0.00,0.51,0.00,21.49,28.56,31.68,14.68,48.82,1012.72,2031.99,3244.02,2965.99,3350.15,599.89,596.80,41.60,0000 0000 0000 0000 000000
2016-08-22 01:24:04,0.02,0.51,0.00,21.39,28.52,31.66,14.70,49.01,1012.74,2032.42,3244.58,2966.55,3350.77,600.13,596.98,41.65,0000 0000 0000 0000 000000
2016-08-22 01:29:05,0.01,0.51,0.00,21.31,28.48,31.49,14.66,48.84,1012.74,2032.93,3244.92,2966.98,3350.99,599.77,596.94,41.70,0000 0000 0000 0000 000000
2016-08-22 01:34:07,0.00,0.51,0.00,21.39,28.43,31.32,14.73,48.83,1012.73,2032.99,3244.97,2966.99,3351.02,600.17,597.12,41.75,0000 0000 0000 0000 000000
2016-08-22 01:39:08,0.00,0.51,0.00,21.47,28.39,31.22,14.72,48.68,1012.75,2032.99,3244.98,2966.99,3351.05,600.17,597.03,41.80,0000 0000 0000 0000 000000
2016-08-22 01:44:09,0.00,0.51,0.00,21.57,28.35,31.22,14.74,48.70,1012.74,2033.00,3244.98,2967.00,3351.15,599.92,596.50,41.85,0000 0000 0000 0000 000000
2016-08-22 01:49:10,-0.00,0.51,0.00,21.63,28.31,31.27,14.68,48.68,1012.73,2033.03,3244.99,2967.05,3351.40,600.22,596.73,41.91,0000 0000 0000 0000 000000
2016-08-22 01:54:12,0.03,0.51,0.00,21.67,28.28,31.33,14.61,48.72,1012.72,2033.44,3244.99,2967.37,3351.79,599.81,596.27,41.96,0000 0000 0000 0000 000000
2016-08-22 01:59:13,0.01,0.52,0.00,21.70,28.25,31.34,14.66,48.70,1012.72,2033.91,3244.99,2967.86,3351.95,600.13,596.58,42.01,0000 0000 0000 0000 000000
2016-08-22 02:04:14,0.00,0.52,0.00,21.74,28.22,31.42,14.72,48.80,1012.72,2033.96,3244.98,2967.83,3351.95,600.09,596.34,42.06,0000 0000 0000 0000 000000
2016-08-22 02:09:15,0.01,0.52,0.00,22.60,28.21,31.48,14.57,48.56,1012.72,2033.99,3244.99,2967.77,3351.89,600.38,594.88,42.11,0000 0000 0000 0000 000000
2016-08-22 02:14:16,-0.00,0.52,0.00,23.43,28.22,31.40,14.49,48.40,1012.73,2033.99,3244.99,2967.82,3351.82,600.04,592.73,42.16,0000 0000 0000 0000 000000
2016-08-22 02:19:17,0.02,0.52,0.00,23.72,28.23,31.18,14.43,48.24,1012.81,2033.99,3245.00,2967.39,3351.22,599.85,592.16,42.21,0000 0000 0000 0000 000000
2016-08-22 02:24:19,0.01,0.52,0.00,23.84,28.26,31.06,14.49,48.15,1012.85,2033.99,3244.99,2967.04,3351.00,600.32,592.54,42.26,0000 0000 0000 0000 000000
2016-08-22 02:29:20,0.00,0.52,0.00,23.92,28.28,31.05,14.39,48.00,1012.90,2033.99,3244.95,2967.00,3350.99,599.48,591.46,42.31,0000 0000 0000 0000 000000
2016-08-22 02:34:21,0.01,0.52,0.00,23.99,28.31,31.09,14.45,48.06,1012.89,2033.97,3244.57,2966.98,3350.70,600.47,592.35,42.36,0000 0000 0000 0000 000000
2016-08-22 02:39:22,0.01,0.52,0.00,23.98,28.34,31.16,14.45,48.10,1012.91,2033.94,3244.04,2966.76,3350.09,600.05,592.00,42.41,0000 0000 0000 0000 000000
2016-08-22 02:44:24,-0.01,0.52,0.00,24.03,28.36,31.20,14.45,48.16,1012.85,2033.69,3243.98,2966.08,3349.97,599.94,591.67,42.46,0000 0000 0000 0000 000000
2016-08-22 02:49:25,-0.02,0.52,0.00,24.10,28.40,31.21,14.44,48.06,1012.79,2033.24,3243.64,2966.00,3349.45,599.69,591.34,42.51,0000 0000 0000 0000 000000
2016-08-22 02:54:26,0.00,0.52,0.00,24.14,28.42,31.22,14.42,47.98,1012.81,2033.02,3243.09,2965.89,3349.01,599.81,591.34,42.56,0000 0000 0000 0000 000000
2016-08-22 02:59:27,0.02,0.52,0.00,24.15,28.45,31.25,14.35,48.04,1012.76,2033.00,3242.99,2965.25,3348.93,599.22,590.75,42.61,0000 0000 0000 0000 000000
2016-08-22 03:04:28,0.02,0.52,0.00,24.20,28.48,31.27,14.28,47.94,1012.76,2033.00,3242.51,2965.01,3348.16,599.37,590.76,42.66,0000 0000 0000 0000 000000
2016-08-22 03:09:30,0.00,0.52,0.00,24.25,28.50,31.28,14.43,47.92,1012.74,2032.99,3242.15,2964.99,3348.00,600.27,591.54,42.71,0000 0000 0000 0000 000000
2016-08-22 03:14:31,0.01,0.52,0.00,24.23,28.53,31.30,14.37,48.08,1012.75,2032.97,3242.00,2964.75,3347.88,599.74,591.06,42.76,0000 0000 0000 0000 000000
2016-08-22 03:19:32,0.03,0.52,0.00,24.26,28.55,31.33,14.41,48.03,1012.90,2032.90,3241.84,2964.10,3347.14,600.04,591.33,42.81,0000 0000 0000 0000 000000
2016-08-22 03:24:33,-0.01,0.52,0.00,24.31,28.57,31.31,14.40,48.15,1013.13,2032.74,3241.30,2964.00,3347.00,599.87,591.31,42.87,0000 0000 0000 0000 000000
2016-08-22 03:29:34,-0.02,0.52,0.00,24.32,28.60,31.33,14.41,48.06,1013.19,2032.31,3241.01,2963.98,3346.87,600.07,591.56,42.92,0000 0000 0000 0000 000000
2016-08-22 03:34:36,-0.00,0.52,0.00,24.35,28.61,31.33,14.43,48.03,1013.19,2032.07,3240.98,2963.87,3346.28,600.10,591.44,42.97,0000 0000 0000 0000 000000
2016-08-22 03:39:37,0.02,0.52,0.00,24.36,28.63,31.33,14.38,47.97,1013.19,2032.03,3240.75,2963.18,3346.01,600.02,591.30,43.02,0000 0000 0000 0000 000000
2016-08-22 03:44:38,0.00,0.52,0.00,24.36,28.65,31.36,14.34,48.06,1013.20,2032.00,3240.09,2963.01,3345.96,599.90,591.24,43.07,0000 0000 0000 0000 000000
2016-08-22 03:49:40,0.01,0.52,0.00,24.40,28.66,31.35,14.41,48.03,1013.20,2032.00,3240.00,2963.00,3345.61,600.23,591.46,43.12,0000 0000 0000 0000 000000
2016-08-22 03:54:41,0.00,0.52,0.00,24.43,28.67,31.34,14.46,48.08,1013.20,2032.00,3239.97,2962.97,3345.09,600.57,591.70,43.17,0000 0000 0000 0000 000000
2016-08-22 03:59:43,0.02,0.53,0.00,24.44,28.69,31.36,14.36,48.00,1013.20,2032.00,3239.50,2962.44,3345.00,600.22,591.22,43.22,0000 0000 0000 0000 000000
2016-08-22 04:04:44,0.01,0.53,0.00,24.45,28.70,31.36,14.47,48.02,1013.20,2031.99,3239.10,2962.10,3344.92,600.51,591.65,43.27,0000 0000 0000 0000 000000
2016-08-22 04:09:45,0.01,0.53,0.00,24.47,28.71,31.37,14.36,47.94,1013.20,2031.98,3239.00,2962.01,3344.54,599.82,590.93,43.32,0000 0000 0000 0000 000000
2016-08-22 04:14:47,0.01,0.53,0.00,24.46,28.72,31.36,14.32,47.83,1013.20,2031.97,3239.00,2962.00,3344.07,599.76,590.95,43.37,0000 0000 0000 0000 000000
2016-08-22 04:19:48,-0.00,0.53,0.00,24.47,28.73,31.37,14.40,47.91,1013.20,2031.88,3238.82,2961.99,3343.99,600.13,591.27,43.42,0000 0000 0000 0000 000000
2016-08-22 04:24:49,-0.01,0.53,0.00,24.48,28.75,31.38,14.37,47.87,1013.21,2031.66,3238.27,2961.86,3343.97,599.97,590.97,43.47,0000 0000 0000 0000 000000
2016-08-22 04:29:50,0.03,0.53,0.00,24.50,28.75,31.40,14.45,47.89,1013.21,2031.72,3238.01,2961.69,3343.90,600.06,591.16,43.52,0000 0000 0000 0000 000000
2016-08-22 04:34:52,0.01,0.53,0.00,24.50,28.75,31.39,14.37,47.93,1013.21,2031.66,3238.02,2961.45,3343.60,599.78,590.80,43.57,0000 0000 0000 0000 000000
2016-08-22 04:39:53,-0.00,0.53,0.00,24.51,28.77,31.40,14.40,47.95,1013.22,2031.54,3238.01,2961.15,3343.20,599.81,590.79,43.62,0000 0000 0000 0000 000000
2016-08-22 04:44:54,-0.02,0.53,0.00,24.51,28.77,31.40,14.35,48.21,1013.20,2031.24,3237.98,2961.01,3343.01,599.92,590.85,43.67,0000 0000 0000 0000 000000
2016-08-22 04:49:55,0.00,0.53,0.00,24.51,28.77,31.41,14.40,48.14,1013.22,2031.21,3237.77,2961.00,3343.00,599.84,590.88,43.72,0000 0000 0000 0000 000000
2016-08-22 04:54:56,0.00,0.53,0.00,24.51,28.79,31.41,14.44,48.20,1013.29,2031.11,3237.10,2960.99,3342.91,600.51,591.56,43.77,0000 0000 0000 0000 000000
2016-08-22 04:59:58,0.00,0.53,0.00,24.52,28.80,31.42,14.47,48.22,1013.29,2031.03,3237.00,2960.95,3342.30,600.41,591.46,43.82,0000 0000 0000 0000 000000
2016-08-22 05:04:59,0.01,0.53,0.00,24.53,28.80,31.43,14.40,48.12,1013.35,2031.02,3236.99,2960.71,3342.04,599.72,590.92,43.88,0000 0000 0000 0000 000000
2016-08-22 05:10:00,0.01,0.53,0.00,24.52,28.80,31.43,14.42,48.12,1013.38,2031.01,3236.96,2960.33,3342.00,599.98,591.08,43.93,0000 0000 0000 0000 000000
2016-08-22 05:15:01,0.01,0.53,0.00,24.55,28.80,31.43,14.39,47.93,1013.47,2031.02,3236.76,2960.10,3342.00,600.07,591.13,43.98,0000 0000 0000 0000 000000
2016-08-22 05:20:02,0.01,0.53,0.00,24.55,28.81,31.44,14.45,48.07,1013.53,2031.01,3236.29,2960.02,3341.97,599.99,591.07,44.03,0000 0000 0000 0000 000000
2016-08-22 05:25:04,0.00,0.53,0.00,24.57,28.82,31.45,14.38,48.10,1013.56,2031.01,3236.04,2960.01,3341.94,599.71,590.87,44.08,0000 0000 0000 0000 000000
2016-08-22 05:30:05,0.00,0.53,0.00,24.58,28.82,31.44,14.45,47.93,1013.53,2031.04,3236.01,2960.00,3341.76,600.20,591.25,44.13,0000 0000 0000 0000 000000
2016-08-22 05:35:06,0.01,0.53,0.00,24.58,28.82,31.44,14.35,47.92,1013.62,2031.02,3236.00,2960.00,3341.11,600.16,591.26,44.18,0000 0000 0000 0000 000000
2016-08-22 05:40:07,0.00,0.53,0.00,24.58,28.82,31.45,14.42,47.89,1013.67,2031.00,3235.97,2960.00,3341.00,600.15,591.19,44.23,0000 0000 0000 0000 000000
2016-08-22 05:45:08,0.00,0.53,0.00,24.59,28.82,31.46,14.37,47.81,1013.67,2031.01,3235.82,2959.95,3341.00,599.97,591.03,44.28,0000 0000 0000 0000 000000
2016-08-22 05:50:10,0.01,0.53,0.00,24.59,28.82,31.47,14.41,48.00,1013.69,2031.00,3235.53,2959.87,3340.98,600.34,591.49,44.33,0000 0000 0000 0000 000000
2016-08-22 05:55:11,0.02,0.53,0.00,24.60,28.83,31.46,14.38,48.16,1013.68,2031.00,3235.09,2959.41,3340.78,599.76,590.90,44.38,0000 0000 0000 0000 000000
2016-08-22 06:00:13,0.01,0.53,0.00,24.60,28.84,31.46,14.43,48.05,1013.67,2031.00,3235.00,2959.05,3340.13,600.47,591.51,44.43,0000 0000 0000 0000 000000
2016-08-22 06:05:14,0.00,0.53,0.00,24.62,28.84,31.47,14.42,47.88,1013.68,2031.00,3234.99,2959.01,3340.02,599.87,590.97,44.48,0000 0000 0000 0000 000000
2016-08-22 06:10:15,0.00,0.53,0.00,24.63,28.85,31.46,14.29,47.83,1013.69,2031.00,3234.97,2959.00,3340.00,599.73,590.86,44.53,0000 0000 0000 0000 000000
2016-08-22 06:15:16,0.00,0.53,0.00,24.64,28.85,31.47,14.38,48.02,1013.69,2031.00,3234.94,2959.00,3340.00,599.97,591.08,44.58,0000 0000 0000 0000 000000
2016-08-22 06:20:17,0.00,0.53,0.00,24.65,28.85,31.45,14.42,48.03,1013.69,2031.00,3234.56,2959.00,3339.98,600.00,590.97,44.63,0000 0000 0000 0000 000000
2016-08-22 06:25:19,0.01,0.53,0.00,24.65,28.85,31.47,14.40,48.15,1013.70,2031.00,3234.05,2958.97,3339.58,599.85,590.60,44.68,0000 0000 0000 0000 000000
2016-08-22 06:30:20,0.01,0.53,0.00,24.66,28.85,31.47,14.36,48.05,1013.70,2031.00,3234.00,2958.85,3339.07,600.27,591.33,44.73,0000 0000 0000 0000 000000
2016-08-22 06:35:22,0.00,0.53,0.00,24.67,28.85,31.47,14.40,47.98,1013.69,2031.00,3234.00,2958.69,3339.02,600.09,591.16,44.78,0000 0000 0000 0000 000000
2016-08-22 06:40:23,0.01,0.54,0.00,24.68,28.85,31.47,14.32,47.94,1013.69,2031.00,3233.99,2958.37,3339.00,599.83,590.87,44.83,0000 0000 0000 0000 000000
2016-08-22 06:45:24,0.00,0.54,0.00,24.69,28.85,31.47,14.35,47.92,1013.69,2030.99,3233.88,2958.03,3338.99,600.05,590.74,44.89,0000 0000 0000 0000 000000
2016-08-22 06:50:26,0.01,0.54,0.00,24.70,28.85,31.47,14.32,47.98,1013.70,2030.99,3233.47,2958.01,3338.94,599.98,590.88,44.94,0000 0000 0000 0000 000000
2016-08-22 06:55:27,0.01,0.54,0.00,24.70,28.86,31.49,14.40,47.92,1013.71,2030.99,3233.05,2958.00,3338.63,600.17,591.15,44.99,0000 0000 0000 0000 000000
2016-08-22 07:00:29,0.01,0.54,0.00,24.70,28.87,31.49,14.41,47.86,1013.71,2030.99,3233.00,2958.00,3338.11,600.13,591.02,45.04,0000 0000 0000 0000 000000
2016-08-22 07:05:30,0.00,0.54,0.00,24.71,28.87,31.50,14.38,47.88,1013.70,2030.99,3233.00,2957.99,3338.00,600.31,591.26,45.09,0000 0000 0000 0000 000000
2016-08-22 07:10:31,0.00,0.54,0.00,24.71,28.87,31.49,14.42,48.03,1013.70,2030.98,3232.98,2957.95,3338.00,600.00,590.89,45.14,0000 0000 0000 0000 000000
2016-08-22 07:15:32,0.00,0.54,0.00,24.72,28.87,31.49,14.36,47.83,1013.69,2030.99,3232.87,2957.88,3337.99,599.95,590.84,45.19,0000 0000 0000 0000 000000
2016-08-22 07:20:33,0.01,0.54,0.00,24.73,28.87,31.49,14.43,47.85,1013.70,2030.99,3232.56,2957.70,3337.97,600.22,591.18,45.24,0000 0000 0000 0000 000000
2016-08-22 07:25:34,0.02,0.54,0.00,24.73,28.87,31.50,14.34,48.03,1013.70,2030.98,3232.16,2957.32,3337.75,600.06,590.80,45.29,0000 0000 0000 0000 000000
2016-08-22 07:30:36,0.01,0.54,0.00,24.74,28.87,31.51,14.33,47.97,1013.70,2030.99,3232.01,2957.03,3337.19,599.80,590.57,45.34,0000 0000 0000 0000 000000
2016-08-22 07:35:37,0.00,0.54,0.00,24.75,28.87,31.51,14.35,47.92,1013.72,2030.98,3232.00,2957.00,3337.00,599.94,590.83,45.39,0000 0000 0000 0000 000000
2016-08-22 07:40:38,0.00,0.54,0.00,24.75,28.87,31.51,14.39,47.98,1013.73,2030.99,3231.97,2957.00,3337.01,600.01,590.86,45.44,0000 0000 0000 0000 000000
2016-08-22 07:45:39,0.00,0.54,0.00,24.76,28.87,31.50,14.35,47.81,1013.88,2030.99,3231.94,2957.00,3337.00,599.70,590.55,45.49,0000 0000 0000 0000 000000
2016-08-22 07:50:41,0.01,0.54,0.00,24.75,28.87,31.52,14.34,47.81,1013.97,2030.98,3231.49,2957.00,3336.98,600.05,591.01,45.54,0000 0000 0000 0000 000000
2016-08-22 07:55:42,0.00,0.54,0.00,24.75,28.87,31.50,14.33,47.88,1013.97,2030.99,3231.12,2956.99,3336.91,599.93,590.94,45.59,0000 0000 0000 0000 000000
2016-08-22 08:00:43,0.00,0.54,0.00,24.77,28.87,31.49,14.35,47.78,1013.97,2030.99,3231.00,2956.98,3336.62,599.75,590.65,45.64,0000 0000 0000 0000 000000
2016-08-22 08:05:44,0.01,0.54,0.00,24.77,28.87,31.51,14.38,47.77,1014.08,2030.98,3230.99,2956.89,3336.15,600.06,590.89,45.69,0000 0000 0000 0000 000000
2016-08-22 08:10:45,0.02,0.54,0.00,24.77,28.87,31.52,14.43,47.72,1014.02,2030.98,3230.95,2956.25,3336.00,599.99,591.02,45.74,0000 0000 0000 0000 000000
2016-08-22 08:15:46,0.00,0.54,0.00,24.80,28.86,31.52,14.34,47.75,1014.08,2030.98,3230.83,2956.07,3336.00,599.97,590.94,45.79,0000 0000 0000 0000 000000
2016-08-22 08:20:48,0.01,0.54,0.00,24.82,28.85,31.51,14.37,47.73,1014.14,2030.98,3230.28,2956.02,3336.00,600.07,591.02,45.85,0000 0000 0000 0000 000000
2016-08-22 08:25:49,0.00,0.54,0.00,24.83,28.85,31.51,14.34,47.84,1014.16,2030.99,3230.09,2956.01,3335.98,599.83,590.80,45.90,0000 0000 0000 0000 000000
2016-08-22 08:30:51,0.00,0.54,0.00,24.82,28.85,31.50,14.32,47.77,1014.16,2030.99,3230.02,2956.00,3335.82,599.50,590.47,45.95,0000 0000 0000 0000 000000
2016-08-22 08:35:52,0.00,0.54,0.00,24.82,28.85,31.49,14.33,47.85,1014.16,2030.98,3230.00,2956.00,3335.37,599.61,590.74,46.00,0000 0000 0000 0000 000000
2016-08-22 08:40:53,0.00,0.55,0.00,24.80,28.85,31.48,14.32,47.80,1014.17,2030.99,3229.99,2955.99,3335.06,600.04,591.13,46.05,0000 0000 0000 0000 000000
2016-08-22 08:45:54,0.00,0.55,0.00,24.79,28.85,31.48,14.38,47.69,1014.17,2030.98,3229.90,2955.97,3335.00,600.30,591.17,46.10,0000 0000 0000 0000 000000
2016-08-22 08:50:55,0.02,0.55,0.00,24.77,28.85,31.47,14.36,47.86,1014.15,2030.99,3229.26,2955.75,3334.98,599.97,591.03,46.15,0000 0000 0000 0000 000000
2016-08-22 08:55:57,0.02,0.55,0.00,24.76,28.85,31.47,14.36,47.79,1014.14,2030.99,3229.03,2955.36,3334.88,600.00,591.02,46.20,0000 0000 0000 0000 000000
2016-08-22 09:00:58,0.01,0.55,0.00,24.74,28.85,31.48,14.41,47.85,1014.06,2030.99,3229.00,2955.08,3334.43,600.11,591.14,46.25,0000 0000 0000 0000 000000
2016-08-22 09:05:59,0.00,0.55,0.00,24.72,28.85,31.48,14.36,47.93,1014.09,2030.99,3229.00,2955.00,3334.03,599.72,590.82,46.30,0000 0000 0000 0000 000000
2016-08-22 09:11:00,0.00,0.55,0.00,24.75,28.85,31.48,14.40,47.77,1014.13,2030.99,3228.91,2955.00,3334.00,599.75,590.89,46.35,0000 0000 0000 0000 000000
2016-08-22 09:16:02,0.00,0.55,0.00,24.74,28.86,31.48,14.37,47.83,1014.17,2030.99,3228.52,2955.00,3333.99,599.78,590.82,46.40,0000 0000 0000 0000 000000
2016-08-22 09:21:03,0.00,0.55,0.00,24.72,28.87,31.49,14.38,47.81,1014.17,2030.98,3228.08,2954.98,3333.96,599.76,591.00,46.45,0000 0000 0000 0000 000000
2016-08-22 09:26:05,0.00,0.55,0.00,24.72,28.87,31.50,14.40,47.87,1014.17,2030.98,3228.01,2954.97,3333.85,599.84,590.90,46.50,0000 0000 0000 0000 000000
2016-08-22 09:31:05,0.00,0.55,0.00,24.72,28.87,31.49,14.39,47.77,1014.17,2030.98,3228.00,2954.92,3333.52,599.78,590.99,46.55,0000 0000 0000 0000 000000
2016-08-22 09:36:07,0.02,0.55,0.00,24.72,28.87,31.51,14.44,47.83,1014.17,2030.97,3227.99,2954.48,3333.06,600.14,591.23,46.60,0000 0000 0000 0000 000000
2016-08-22 09:41:08,0.01,0.55,0.00,24.72,28.87,31.49,14.36,47.85,1014.17,2030.96,3227.69,2954.13,3333.02,599.80,590.99,46.65,0000 0000 0000 0000 000000
2016-08-22 09:46:10,0.00,0.55,0.00,24.72,28.87,31.50,14.37,47.83,1014.17,2030.93,3227.12,2954.01,3332.98,599.97,591.14,46.70,0000 0000 0000 0000 000000
2016-08-22 09:51:11,0.01,0.55,0.00,24.72,28.87,31.49,14.29,47.70,1014.17,2030.96,3227.02,2954.00,3332.90,599.83,591.06,46.76,0000 0000 0000 0000 000000
2016-08-22 09:56:13,0.00,0.55,0.00,24.72,28.87,31.50,14.41,47.92,1014.17,2030.91,3227.00,2953.99,3332.47,600.01,591.13,46.81,0000 0000 0000 0000 000000
2016-08-22 10:01:14,0.00,0.55,0.00,24.71,28.87,31.51,14.33,47.69,1014.17,2030.88,3226.97,2953.96,3332.02,599.96,590.99,46.86,0000 0000 0000 0000 000000
2016-08-22 10:06:15,0.02,0.55,0.00,24.71,28.87,31.51,14.38,47.81,1014.17,2030.90,3226.60,2953.82,3332.00,599.91,591.04,46.91,0000 0000 0000 0000 000000
2016-08-22 10:11:16,0.01,0.55,0.00,24.72,28.87,31.51,14.41,47.87,1014.17,2030.88,3226.13,2953.45,3331.98,600.44,591.52,46.96,0000 0000 0000 0000 000000
2016-08-22 10:16:17,0.01,0.55,0.00,24.71,28.88,31.51,14.34,47.77,1014.17,2030.85,3226.01,2953.08,3331.77,599.74,590.91,47.01,0000 0000 0000 0000 000000
2016-08-22 10:21:19,0.02,0.56,0.00,24.69,28.88,31.51,14.38,47.81,1014.15,2030.89,3226.00,2953.02,3331.21,600.22,591.54,47.06,0000 0000 0000 0000 000000
2016-08-22 10:26:20,0.00,0.56,0.00,24.70,28.88,31.51,14.39,47.78,1014.15,2030.87,3225.81,2953.00,3331.00,599.89,591.10,47.11,0000 0000 0000 0000 000000
2016-08-22 10:31:21,-0.00,0.56,0.00,24.69,28.88,31.51,14.39,47.67,1014.15,2030.81,3225.22,2952.99,3330.99,600.32,591.52,47.16,0000 0000 0000 0000 000000
2016-08-22 10:36:22,-0.01,0.56,0.00,24.67,28.88,31.51,14.35,47.67,1014.15,2030.69,3225.02,2952.95,3330.90,599.99,591.40,47.21,0000 0000 0000 0000 000000
2016-08-22 10:41:24,0.03,0.56,0.00,24.68,28.89,31.50,14.47,47.79,1014.11,2030.75,3224.98,2952.64,3330.38,600.42,591.60,47.26,0000 0000 0000 0000 000000
2016-08-22 10:46:25,0.02,0.56,0.00,24.68,28.89,31.51,14.38,47.77,1014.11,2030.74,3224.94,2952.25,3330.04,600.32,591.60,47.31,0000 0000 0000 0000 000000
2016-08-22 10:51:26,0.01,0.56,0.00,24.69,28.90,31.52,14.43,47.88,1014.13,2030.83,3224.61,2952.11,3330.01,600.05,591.29,47.36,0000 0000 0000 0000 000000
2016-08-22 10:56:27,0.00,0.56,0.00,24.69,28.90,31.51,14.31,47.66,1014.15,2030.78,3224.20,2952.02,3330.00,599.84,591.02,47.41,0000 0000 0000 0000 000000
2016-08-22 11:01:28,-0.01,0.56,0.00,24.67,28.90,31.52,14.38,47.81,1014.13,2030.60,3224.04,2952.00,3329.99,599.78,591.11,47.46,0000 0000 0000 0000 000000
2016-08-22 11:06:29,0.03,0.56,0.00,24.67,28.90,31.52,14.36,47.73,1014.11,2030.88,3224.00,2952.00,3329.98,599.95,591.18,47.51,0000 0000 0000 0000 000000
2016-08-22 11:11:31,-0.00,0.56,0.00,24.66,28.90,31.52,14.40,47.83,1013.98,2030.87,3224.00,2952.00,3329.92,600.35,591.52,47.56,0000 0000 0000 0000 000000
2016-08-22 11:16:32,0.00,0.56,0.00,24.67,28.90,31.54,14.44,47.88,1013.77,2030.83,3224.00,2952.00,3329.76,600.34,591.42,47.61,0000 0000 0000 0000 000000
2016-08-22 11:21:33,-0.02,0.56,0.00,24.66,28.90,31.52,14.39,48.02,1013.75,2030.58,3223.95,2951.99,3329.24,600.19,591.26,47.66,0000 0000 0000 0000 000000
2016-08-22 11:26:34,0.02,0.56,0.00,24.66,28.90,31.53,14.38,47.80,1013.94,2030.50,3223.72,2951.96,3329.01,599.76,591.01,47.71,0000 0000 0000 0000 000000
2016-08-22 11:31:36,0.02,0.56,0.00,24.66,28.90,31.53,14.39,47.80,1014.11,2030.76,3223.42,2951.98,3329.01,600.14,591.35,47.77,0000 0000 0000 0000 000000
2016-08-22 11:36:37,-0.00,0.56,0.00,24.66,28.90,31.52,14.39,47.82,1014.05,2030.60,3223.02,2951.67,3329.00,599.88,591.17,47.82,0000 0000 0000 0000 000000
2016-08-22 11:41:38,-0.00,0.56,0.00,24.66,28.90,31.52,14.47,47.96,1014.12,2030.50,3223.00,2951.21,3328.96,600.10,591.15,47.87,0000 0000 0000 0000 000000
2016-08-22 11:46:40,0.03,0.56,0.00,24.65,28.90,31.54,14.37,47.85,1013.98,2030.62,3222.99,2951.07,3328.81,599.63,590.76,47.92,0000 0000 0000 0000 000000
2016-08-22 11:51:41,-0.01,0.56,0.00,24.64,28.90,31.54,14.41,47.79,1013.87,2030.49,3222.83,2951.01,3328.30,599.99,591.11,47.97,0000 0000 0000 0000 000000
2016-08-22 11:56:42,-0.00,0.56,0.00,24.65,28.90,31.53,14.38,47.79,1013.79,2030.32,3222.28,2951.00,3328.01,600.13,591.29,48.02,0000 0000 0000 0000 000000
2016-08-22 12:01:44,0.01,0.56,0.00,24.65,28.91,31.54,14.37,47.80,1013.74,2030.32,3222.07,2951.00,3328.00,600.02,591.04,48.07,0000 0000 0000 0000 000000
2016-08-22 12:06:45,0.00,0.56,0.00,24.65,28.92,31.54,14.37,47.75,1013.70,2030.45,3222.04,2951.00,3328.00,599.99,591.05,48.12,0000 0000 0000 0000 000000
2016-08-22 12:11:46,0.00,0.56,0.00,24.65,28.92,31.54,14.39,47.78,1013.69,2030.36,3222.00,2950.98,3327.98,600.16,591.18,48.17,0000 0000 0000 0000 000000
2016-08-22 12:16:47,-0.02,0.56,0.00,24.65,28.92,31.55,14.33,47.80,1013.69,2030.21,3222.00,2950.94,3327.88,599.54,590.50,48.22,0000 0000 0000 0000 000000
2016-08-22 12:21:48,0.02,0.56,0.00,24.65,28.92,31.55,14.32,47.75,1013.70,2030.19,3221.98,2950.60,3327.39,599.83,590.78,48.27,0000 0000 0000 0000 000000
2016-08-22 12:26:49,-0.00,0.56,0.00,24.63,28.92,31.55,14.38,47.80,1013.71,2030.05,3221.87,2950.19,3327.03,600.11,591.31,48.32,0000 0000 0000 0000 000000
2016-08-22 12:31:51,0.01,0.56,0.00,24.64,28.92,31.55,14.36,47.90,1013.71,2030.04,3221.45,2950.05,3327.00,599.84,590.83,48.37,0000 0000 0000 0000 000000
2016-08-22 12:36:52,0.00,0.56,0.00,24.62,28.93,31.55,14.37,47.87,1013.70,2030.04,3221.05,2950.01,3327.00,600.21,591.24,48.42,0000 0000 0000 0000 000000
2016-08-22 12:41:53,-0.00,0.56,0.00,24.62,28.93,31.55,14.36,47.77,1013.70,2030.02,3221.00,2950.00,3326.99,599.78,590.91,48.47,0000 0000 0000 0000 000000
2016-08-22 12:46:54,0.00,0.56,0.00,24.62,28.94,31.56,14.39,47.92,1013.71,2030.05,3221.00,2950.00,3326.98,599.59,590.78,48.52,0000 0000 0000 0000 000000
2016-08-22 12:51:55,0.00,0.56,0.00,24.62,28.94,31.55,14.44,47.88,1013.70,2030.09,3220.99,2950.00,3326.97,600.10,591.15,48.57,0000 0000 0000 0000 000000
2016-08-22 12:56:56,-0.00,0.56,0.00,24.61,28.94,31.55,14.40,47.83,1013.70,2030.05,3220.94,2950.00,3326.82,600.03,591.13,48.62,0000 0000 0000 0000 000000